IUS DEB, 43367

Orbit data source: Space-Track

IUS DEB, 43367 is space debris originally from a launch on Fri, 23 Jul 1999 UTC launched from the Air Force Eastern Test Range (AFETR). Debris objects in space refer to the collection of defunct objects orbiting the Earth. Examples of debris include non-operational satellites, rocket bodies, and fragments generated from explosions, collisions, or faulty payload assembly.

Loading next visibility...
Identifier
43367, 1999-040Q
Orbit
Active
Country
Flag of USUS
Related business
Manufacturer
Boeing/Kent
Mission
Spacecraft
Bus & Motor
Unknown
Mass
Unknown
Launch date (UTC)
1999-07-23 (27 years ago)
Launch vehicle
Unknown
Launch site
Air Force Eastern Test Range (AFETR)
Object type
Payload
Rocket body
Debris
Shape & HBR
Unknown shape, 0.1 m
Radar Cross Section
Medium (>0.1 m² and <1 m²)

Expand to show TLE details & history
Last TLE update: 2 weeks ago

TLE from 2 weeks ago
0 IUS DEB
1 43367U 99040Q   26251.99296919  .00000298  00000-0  18700-2 0  9992
2 43367  28.0981 157.4075 3768796 184.8998 170.0579  7.01239055127095
Epoch: 2026-09-08T23:49Z
TLE epoch observation values (Epoch: 2026-09-08T23:49:52.538Z)
Latitude
0.00001°
Longitude
171.88719°
Altitude
9,460.568 km
Speed
3.971 km/s
True Right ascension
10h 29m 37s
True Declination
0° 00' 00"
Sunlit
Object was in daylight at epoch
Visualization orbit readout
Latitude
Unknown
Longitude
Unknown
Altitude
Unknown
Speed
Unknown
Apparent Right ascension
Unknown
Apparent Declination
Unknown
Sunlit
N/A
Visualization observer readout
Local Sidereal Time
16:00:25
Azimuth
Unknown
Elevation
Unknown
Doppler factor
Unknown
Orbital elements
Apogee altitude
9,501.534 km
Perigee altitude
808.364 km
Semi-major axis
11,533.086 km
Eccentricity
0.37688
Inclination
28.0981°
RAAN
157.4075°
Arg. of periapsis
184.8998°
True anomaly
175.13536°
Mean anomaly
170.0579°
Eccentric anomaly
172.77401°
Mean motion
1.75237 °/min
Orbital period
205.44 mins
BSTAR
0.00187
Loading maneuver chart data...
Computing Atmospheric mass density...
Loading historical data...
Loading historical data...
Loading historical data...
Loading historical data...
Loading historical data...
Loading historical data...
Loading historical data...

Documentation

Showing up to 5 results
|